Wind_Speed
25 26 26 27 26 26 26 25 25 25 24 24 23 22 21 19 18 18 17 16 16 16 15 15 15 15 15 16 16 16 16 16 16 16 16 16 16 16 17 17 17 17 17
25 26 26 26 27 26 26 26 26 25 24 24 24 23 22 21 20 20 19 18 18 17 16 16 16 17 17 17 17 17 17 17 18 18 18 18 18 18 18 19 19 19 19
25 26 27 27 27 26 25 26 26 27 26 25 24 24 23 22 21 20 20 20 19 18 18 17 17 17 17 18 18 18 18 18 19 19 19 19 20 20 20 20 21 21 21
23 23 24 25 25 25 25 25 25 25 25 24 23 24 24 22 21 21 21 21 20 20 19 19 18 18 18 18 18 18 19 19 19 20 20 20 21 21 21 21 22 23 24
23 24 25 24 24 23 23 23 23 23 24 23 22 23 23 23 22 23 22 21 21 20 20 20 19 19 20 20 19 20 20 20 20 20 21 21 22 22 22 23 24 24 24
24 25 24 24 24 23 23 23 23 23 23 22 22 22 23 23 23 22 22 21 21 20 20 20 20 20 21 21 21 21 21 21 21 21 22 22 22 22 23 24 24 25 26
23 23 24 24 23 24 23 23 22 22 22 21 21 22 23 22 23 24 23 23 22 22 21 21 21 22 21 21 22 22 22 22 22 22 23 23 22 23 24 24 25 25 26
22 23 23 23 23 23 22 22 21 20 20 20 20 21 22 22 22 23 23 23 23 23 23 22 23 23 22 22 23 23 23 23 23 23 23 23 23 24 24 25 25 26 27
22 22 21 21 21 21 21 21 20 20 20 20 20 20 21 21 21 21 21 22 22 22 22 22 22 22 22 22 23 23 23 23 24 24 23 23 24 24 25 26 27 27 28
21 21 21 21 21 20 20 20 20 21 21 21 21 21 21 22 22 22 22 22 22 22 22 23 23 22 22 22 22 23 23 23 24 24 24 25 25 26 26 26 27 28 29
20 20 21 20 20 21 20 20 20 21 21 21 21 22 22 21 22 22 22 22 22 22 23 23 23 23 22 23 23 23 24 24 24 24 25 26 27 27 27 27 27 28 30
21 20 20 20 20 21 21 21 22 22 22 22 22 22 22 22 21 22 22 23 23 23 22 23 23 23 23 23 23 24 24 25 25 25 25 26 26 27 27 28 28 28 28
22 21 20 19 19 20 20 21 21 21 22 22 22 23 23 23 23 23 23 23 23 23 23 23 23 24 24 25 24 25 25 26 26 25 25 25 25 26 26 27 27 27 27
21 21 20 20 20 21 21 21 22 22 22 23 24 24 24 24 24 24 24 24 24 24 24 24 24 25 25 25 25 25 25 26 26 26 26 26 26 26 27 27 26 26 28
22 22 22 22 22 22 23 23 24 24 24 24 25 25 25 26 26 26 26 25 25 25 25 25 25 25 25 26 26 26 26 27 27 27 27 27 27 27 27 27 26 26 27
23 23 24 24 24 24 25 24 25 25 26 27 27 27 27 27 27 27 27 27 27 26 26 26 26 26 26 26 26 26 26 26 26 27 27 27 27 26 27 26 27 27 27
23 23 23 24 25 26 26 26 27 27 27 28 28 28 28 29 29 28 28 28 28 28 27 27 28 27 27 27 27 26 26 27 26 26 26 26 26 26 26 26 27 26 26
24 24 24 24 24 25 25 26 27 28 28 28 28 28 28 29 29 29 29 29 29 29 28 27 28 28 27 27 27 26 26 26 25 25 26 25 25 25 25 25 25 24 23
24 24 24 24 24 24 25 25 26 27 28 28 29 29 29 29 29 29 29 29 28 28 28 28 28 28 27 27 27 26 26 25 24 24 24 24 23 23 23 23 22 22 21
24 24 24 24 24 24 24 25 25 26 26 27 27 28 28 28 29 29 29 28 28 27 27 27 27 27 27 27 27 25 24 24 23 23 23 22 22 21 21 21 20 20 19
23 24 25 24 24 24 24 25 25 25 25 25 25 26 26 26 28 29 29 28 28 27 26 25 25 26 26 26 25 23 23 22 22 21 21 20 19 19 19 19 18 18 18
22 23 23 23 23 23 24 24 24 24 24 24 25 25 25 26 26 26 26 26 26 26 25 24 24 24 23 23 22 22 21 20 19 19 18 18 18 17 17 17 17 17 18
22 22 22 22 22 22 22 23 23 23 23 23 23 24 24 24 24 24 24 24 23 23 23 22 22 22 22 21 20 20 19 19 18 17 17 16 16 16 15 15 16 16 16
20 20 21 20 20 20 21 21 21 21 21 21 22 22 22 23 22 22 21 22 22 21 21 20 21 21 21 20 20 19 19 18 17 16 16 15 15 15 15 15 15 14 14
18 18 18 18 18 18 18 18 19 19 19 20 20 20 21 21 21 20 20 20 20 20 20 19 19 19 18 18 17 17 17 16 15 15 15 15 15 14 14 14 13 12 12
16 17 16 16 15 16 16 17 17 17 17 17 17 17 17 18 18 18 18 19 18 18 18 18 17 17 16 16 16 16 15 15 14 14 14 14 14 13 12 11 11 11 11
Wind_Direction
268 265 265 263 263 264 265 264 262 259 259 261 263 265 267 262 262 266 266 266 265 265 268 268 268 269 272 271 270 269 269 269 269 269 270 268 269 268 264 262 261 261 261
265 266 265 265 263 264 263 260 259 258 258 259 260 261 261 260 261 260 261 263 263 263 264 266 268 270 272 271 270 268 268 268 269 269 269 268 269 268 265 263 263 262 262
266 266 268 265 265 266 263 260 259 258 257 257 258 261 260 261 259 258 259 261 262 263 263 266 268 269 270 271 269 267 266 268 269 269 270 269 268 268 266 265 265 263 262
268 267 269 269 267 267 265 261 260 259 256 255 257 259 257 257 258 258 259 260 263 263 264 267 267 266 268 269 268 267 267 267 268 269 269 269 268 268 268 267 267 265 263
272 271 271 269 265 265 264 261 256 257 253 253 257 257 256 256 259 259 260 262 263 263 263 264 265 266 267 267 266 265 266 267 269 270 270 269 269 267 267 267 267 266 265
275 274 271 267 265 263 260 259 257 256 254 253 255 256 256 256 257 259 260 262 263 263 263 262 263 265 266 266 266 265 266 268 270 271 271 271 268 268 268 268 268 266 265
275 272 269 267 265 263 261 259 255 254 253 251 253 254 253 253 255 258 258 260 261 261 262 262 264 266 267 267 266 268 267 267 268 269 270 270 269 268 270 269 269 268 268
274 270 266 266 262 259 257 255 253 251 250 251 252 250 251 252 255 255 257 258 259 259 260 261 262 265 266 267 267 267 268 268 269 269 269 269 268 269 270 269 269 270 270
273 271 266 265 261 258 255 253 248 247 249 250 252 252 253 252 255 255 257 258 258 259 259 259 261 262 265 267 267 265 267 268 267 268 268 268 268 269 270 270 270 271 271
274 269 266 263 260 256 253 251 248 249 250 251 252 251 251 253 253 255 258 259 259 260 261 260 262 262 265 266 267 265 265 265 267 268 268 268 268 269 270 271 271 272 271
272 267 262 260 256 253 252 251 251 251 251 253 253 252 251 251 251 251 254 258 259 260 261 261 262 263 264 267 267 267 267 265 266 268 269 269 269 269 269 269 271 270 270
273 270 264 259 257 255 253 254 255 254 253 253 254 254 253 253 253 252 253 256 258 260 261 262 263 263 263 266 268 268 268 267 266 268 269 270 270 268 267 268 271 271 270
272 268 264 261 259 256 255 256 256 256 255 255 254 254 255 255 254 254 253 255 257 259 261 261 261 262 263 265 267 268 268 266 266 267 268 269 270 270 269 271 274 272 270
273 271 267 263 260 259 258 259 258 256 255 255 255 255 255 254 255 256 256 256 257 258 260 261 260 263 264 265 267 267 267 266 267 268 269 269 270 270 272 271 271 271 270
271 270 269 267 266 264 262 260 258 256 256 256 257 257 257 256 256 257 258 258 259 259 261 262 263 263 264 264 265 267 267 266 267 268 269 268 269 269 270 270 271 272 273
270 269 268 266 265 264 263 261 258 258 258 258 258 258 258 257 256 256 257 258 259 260 261 262 262 262 263 263 265 265 266 267 268 269 268 266 266 267 268 269 271 272 272
272 271 270 267 265 263 262 261 260 260 260 260 259 259 258 256 256 257 257 258 259 260 260 260 261 263 263 263 264 266 266 266 266 267 266 265 266 266 266 269 269 271 272
273 274 274 271 268 266 264 263 263 262 262 260 259 259 258 258 257 256 257 257 259 259 259 259 259 261 262 262 263 264 265 264 265 265 265 267 266 266 267 268 270 271 272
275 275 275 273 271 270 268 267 266 265 263 261 260 259 259 258 258 257 257 257 257 258 258 258 258 259 259 261 261 262 263 262 263 263 265 266 266 266 266 268 269 270 270
275 275 273 272 271 271 271 269 269 267 264 262 261 260 260 258 258 257 256 256 257 257 258 257 257 256 256 258 260 261 262 263 263 265 264 264 264 263 263 265 267 268 270
276 275 272 271 271 271 271 271 269 267 265 264 262 262 260 260 259 257 255 255 255 255 256 257 256 255 254 257 258 259 260 261 260 261 262 260 261 261 260 262 265 266 268
274 274 273 273 273 272 272 272 269 267 266 266 266 263 262 261 259 256 253 253 253 253 253 255 255 254 253 253 253 254 256 256 256 257 258 258 258 259 261 262 263 266 270
274 275 276 275 273 271 270 271 271 268 267 267 266 265 262 260 257 255 252 251 250 249 249 250 250 250 249 248 247 247 249 250 250 252 252 254 255 258 261 264 267 268 269
278 278 278 276 274 273 271 271 271 268 267 266 266 264 262 259 256 253 251 248 246 246 244 245 245 244 243 242 243 244 244 246 248 248 250 252 253 257 262 265 265 265 266
280 281 278 277 275 273 273 274 273 272 270 267 266 265 261 258 255 251 247 245 244 242 241 241 239 238 238 237 238 239 241 243 245 246 248 251 254 259 263 263 261 261 264
282 281 280 279 276 274 276 278 280 277 274 270 267 265 260 256 254 249 245 241 239 237 236 234 231 230 230 230 233 236 238 238 240 244 248 250 254 257 257 256 255 259 265
Height
5874 5874 5874 5874 5874 5875 5875 5876 5877 5877 5877 5878 5878 5879 5879 5880 5880 5880 5880 5880 5881 5881 5880 5880 5880 5880 5880 5879 5879 5879 5880 5880 5880 5880 5880 5880 5880 5880 5880 5880 5880 5880 5880
5868 5868 5869 5868 5868 5869 5870 5870 5871 5871 5872 5873 5873 5874 5874 5874 5875 5876 5876 5876 5877 5877 5876 5876 5876 5876 5876 5876 5876 5876 5876 5876 5876 5876 5876 5876 5876 5876 5876 5876 5876 5876 5876
5863 5863 5863 5862 5862 5863 5864 5864 5865 5866 5867 5867 5868 5869 5869 5869 5870 5871 5871 5872 5872 5872 5872 5872 5872 5872 5872 5872 5872 5871 5872 5872 5872 5872 5872 5872 5872 5872 5872 5872 5872 5872 5872
5857 5857 5857 5857 5856 5857 5857 5858 5859 5860 5861 5862 5863 5863 5864 5864 5864 5865 5866 5867 5867 5867 5867 5868 5868 5868 5868 5868 5867 5867 5867 5867 5868 5868 5867 5867 5867 5867 5867 5867 5867 5867 5867
5852 5851 5851 5851 5851 5851 5851 5852 5853 5854 5855 5857 5857 5858 5858 5859 5859 5860 5861 5862 5862 5862 5862 5862 5863 5863 5863 5863 5863 5863 5863 5863 5863 5863 5863 5863 5862 5862 5862 5862 5862 5862 5862
5846 5845 5845 5845 5845 5846 5846 5847 5848 5849 5850 5851 5852 5852 5853 5854 5854 5855 5855 5856 5856 5857 5857 5857 5857 5857 5858 5858 5858 5858 5858 5858 5858 5858 5858 5858 5857 5857 5857 5857 5857 5856 5856
5840 5839 5839 5839 5839 5840 5840 5841 5842 5843 5844 5845 5846 5847 5848 5848 5849 5849 5850 5850 5851 5852 5852 5852 5852 5852 5853 5853 5853 5853 5853 5853 5852 5852 5853 5852 5852 5852 5851 5851 5851 5851 5850
5834 5833 5833 5833 5833 5833 5835 5835 5836 5837 5838 5839 5840 5841 5842 5843 5843 5844 5844 5845 5845 5846 5846 5847 5847 5847 5847 5847 5847 5847 5847 5847 5847 5847 5847 5846 5846 5846 5845 5845 5845 5845 5844
5829 5827 5827 5827 5827 5827 5828 5829 5830 5831 5833 5834 5835 5836 5836 5836 5837 5838 5839 5839 5839 5840 5840 5841 5841 5841 5841 5841 5841 5841 5841 5841 5841 5841 5841 5840 5840 5840 5840 5839 5839 5838 5838
5822 5822 5821 5821 5821 5822 5822 5823 5825 5826 5827 5828 5829 5830 5831 5831 5832 5833 5833 5833 5834 5834 5834 5835 5835 5835 5835 5835 5835 5835 5835 5835 5835 5835 5835 5834 5834 5834 5833 5833 5832 5831 5831
5817 5816 5816 5816 5816 5817 5817 5818 5819 5820 5821 5822 5822 5823 5824 5825 5826 5827 5827 5828 5828 5828 5828 5828 5829 5829 5829 5829 5829 5829 5828 5828 5828 5828 5828 5828 5827 5827 5827 5826 5826 5825 5824
5811 5810 5810 5810 5810 5811 5811 5812 5812 5813 5814 5815 5816 5817 5817 5818 5819 5820 5821 5821 5821 5822 5822 5822 5822 5822 5822 5822 5822 5822 5822 5822 5822 5822 5821 5821 5821 5820 5820 5819 5818 5817 5817
5805 5805 5804 5804 5804 5804 5805 5805 5806 5807 5807 5808 5809 5810 5811 5812 5813 5814 5815 5815 5815 5815 5815 5815 5815 5815 5815 5815 5815 5815 5815 5815 5815 5815 5815 5815 5814 5813 5813 5812 5811 5810 5809
5799 5798 5798 5798 5798 5798 5798 5798 5799 5800 5800 5801 5802 5803 5804 5805 5806 5806 5807 5808 5808 5809 5809 5809 5808 5808 5808 5808 5808 5808 5808 5808 5808 5808 5808 5807 5807 5806 5806 5805 5804 5803 5802
5792 5792 5791 5791 5791 5791 5791 5792 5792 5792 5793 5794 5794 5795 5796 5797 5798 5798 5799 5800 5801 5802 5802 5801 5801 5801 5801 5801 5801 5801 5801 5801 5801 5800 5800 5800 5799 5799 5798 5798 5797 5796 5795
5786 5785 5785 5784 5784 5784 5784 5784 5785 5785 5786 5786 5786 5787 5788 5789 5789 5790 5791 5792 5793 5794 5794 5794 5794 5794 5794 5794 5794 5793 5793 5794 5793 5793 5793 5793 5792 5792 5791 5791 5790 5789 5788
5778 5778 5777 5777 5776 5776 5776 5776 5776 5777 5777 5777 5778 5778 5779 5780 5781 5781 5782 5783 5784 5785 5786 5786 5786 5786 5786 5786 5786 5786 5786 5786 5786 5786 5785 5785 5785 5785 5785 5784 5784 5782 5781
5771 5770 5770 5769 5768 5768 5768 5767 5767 5768 5768 5768 5769 5769 5770 5770 5772 5773 5774 5774 5775 5776 5777 5777 5777 5778 5778 5778 5778 5779 5779 5779 5779 5779 5779 5778 5778 5778 5778 5778 5777 5776 5775
5764 5763 5762 5761 5761 5760 5759 5759 5759 5759 5759 5759 5759 5760 5761 5761 5762 5763 5765 5766 5766 5767 5768 5769 5769 5770 5770 5771 5771 5771 5772 5772 5772 5772 5772 5772 5772 5772 5772 5772 5771 5770 5770
5756 5755 5754 5754 5753 5752 5752 5751 5751 5750 5750 5750 5750 5751 5751 5752 5753 5754 5755 5757 5758 5758 5759 5760 5761 5761 5762 5763 5763 5764 5765 5765 5765 5765 5765 5765 5765 5766 5766 5766 5766 5765 5764
5748 5748 5747 5746 5745 5744 5744 5743 5743 5742 5742 5742 5742 5742 5743 5743 5744 5745 5746 5748 5749 5750 5751 5752 5753 5754 5755 5755 5756 5757 5758 5758 5759 5760 5760 5760 5760 5760 5760 5760 5760 5760 5759
5741 5740 5740 5739 5738 5737 5736 5735 5735 5734 5734 5734 5734 5734 5734 5735 5735 5736 5737 5739 5740 5742 5743 5745 5746 5747 5748 5749 5750 5751 5752 5753 5754 5755 5755 5755 5755 5755 5756 5755 5755 5755 5754
5734 5733 5732 5731 5730 5729 5729 5728 5727 5727 5726 5726 5726 5726 5726 5727 5727 5728 5730 5731 5732 5734 5736 5737 5739 5740 5741 5743 5744 5745 5747 5748 5749 5749 5750 5750 5751 5751 5751 5751 5751 5750 5750
5727 5726 5725 5724 5723 5723 5722 5721 5720 5720 5719 5719 5718 5718 5718 5719 5720 5721 5722 5724 5725 5727 5729 5731 5732 5734 5735 5737 5739 5740 5741 5743 5744 5745 5745 5746 5746 5747 5747 5747 5746 5746 5745
5721 5720 5719 5718 5717 5716 5715 5714 5713 5713 5712 5712 5711 5711 5711 5712 5713 5714 5715 5717 5719 5721 5723 5724 5726 5728 5730 5732 5734 5736 5737 5739 5740 5741 5742 5742 5743 5743 5743 5743 5742 5742 5742
5715 5714 5713 5712 5711 5710 5709 5708 5708 5707 5706 5706 5705 5705 5705 5706 5707 5708 5709 5711 5713 5715 5717 5719 5722 5724 5726 5728 5730 5732 5733 5735 5736 5737 5738 5739 5739 5739 5739 5739 5739 5739 5739